COLT45 TXKF-KSBA

Flight info

Callsign COLT45
Flight time N/A
Altitude 40000
Route BORNN1 ENAPI DCT 3470N/N0487F400 DCT ISO/N0485F430 DCT VXV J46 TUL DCT MMB DCT FTI DCT BUKKO J8 EED DCT HEC PITBL2
Aircraft C750/M-SBDE3FGHRWXY/S

Departure

Time 2026-04-13 20:15
Airport L.F. Wade International Airport (TXKF)

Arrival

Time N/A
Airport Santa Barbara Municipal Airport (KSBA)
Time Latitude Longitude Altitude Speed Heading
2026-04-13 20:04 32.36760 -64.68337 1 ft 0 kts 11°
2026-04-13 20:11 32.36761 -64.68337 1 ft 1 kts 11°
2026-04-13 20:12 32.36761 -64.68330 1 ft 1 kts 124°
2026-04-13 20:12 32.36747 -64.68344 1 ft 8 kts 231°
2026-04-13 20:12 32.36702 -64.68454 1 ft 16 kts 241°
2026-04-13 20:12 32.36667 -64.68560 1 ft 13 kts 269°
2026-04-13 20:13 32.36674 -64.68659 1 ft 11 kts 281°
2026-04-13 20:13 32.36693 -64.68746 1 ft 15 kts 285°
2026-04-13 20:13 32.36715 -64.68866 1 ft 14 kts 275°
2026-04-13 20:13 32.36692 -64.68969 2 ft 12 kts 246°
2026-04-13 20:14 32.36648 -64.69060 0 ft 13 kts 206°
2026-04-13 20:14 32.36601 -64.69020 3 ft 6 kts 91°
2026-04-13 20:14 32.36579 -64.68871 2 ft 51 kts 110°
2026-04-13 20:14 32.36448 -64.68112 3 ft 129 kts 101°
2026-04-13 20:15 32.36237 -64.66937 158 ft 152 kts 101°
2026-04-13 20:15 32.35980 -64.65733 817 ft 150 kts 102°
2026-04-13 20:15 32.35755 -64.64441 1050 ft 178 kts 97°
2026-04-13 20:15 32.35550 -64.62797 954 ft 221 kts 98°
2026-04-13 20:16 32.35288 -64.60953 1527 ft 230 kts 98°
2026-04-13 20:16 32.35018 -64.59061 2233 ft 242 kts 98°
2026-04-13 20:16 32.35240 -64.57094 2976 ft 244 kts 65°
2026-04-13 20:16 32.36355 -64.55640 3900 ft 248 kts 34°
2026-04-13 20:17 32.38060 -64.55112 4658 ft 259 kts
2026-04-13 20:17 32.39881 -64.55100 5482 ft 261 kts
2026-04-13 20:17 32.41684 -64.55006 6252 ft 262 kts
2026-04-13 20:17 32.43535 -64.54896 6893 ft 273 kts 354°
2026-04-13 20:18 32.45282 -64.55749 7681 ft 278 kts 330°
2026-04-13 20:18 32.46738 -64.57313 8514 ft 283 kts 318°
2026-04-13 20:18 32.48110 -64.59008 9335 ft 286 kts 317°
2026-04-13 20:18 32.49483 -64.60714 10083 ft 289 kts 316°
2026-04-13 20:19 32.50920 -64.62484 10344 ft 310 kts 316°
2026-04-13 20:19 32.52466 -64.64383 10362 ft 335 kts 316°
2026-04-13 20:19 32.54141 -64.66452 10524 ft 352 kts 316°
2026-04-13 20:19 32.55815 -64.68531 11203 ft 350 kts 316°
2026-04-13 20:20 32.57512 -64.70634 11633 ft 352 kts 316°
2026-04-13 20:20 32.59207 -64.72728 11879 ft 347 kts 315°
2026-04-13 20:20 32.60786 -64.74868 11816 ft 353 kts 306°
2026-04-13 20:20 32.61728 -64.77608 12019 ft 363 kts 287°
2026-04-13 20:21 32.62299 -64.80538 12777 ft 360 kts 285°
2026-04-13 20:21 32.62829 -64.83424 13348 ft 364 kts 284°
2026-04-13 20:21 32.63383 -64.86370 13968 ft 366 kts 284°
2026-04-13 20:21 32.63955 -64.89335 14525 ft 368 kts 285°
2026-04-13 20:22 32.64526 -64.92313 15115 ft 369 kts 285°
2026-04-13 20:22 32.65086 -64.95275 15598 ft 373 kts 284°
2026-04-13 20:22 32.65657 -64.98300 16161 ft 375 kts 284°
2026-04-13 20:22 32.66233 -65.01337 16759 ft 376 kts 285°
2026-04-13 20:23 32.66802 -65.04334 17353 ft 378 kts 285°
2026-04-13 20:23 32.67383 -65.07411 17906 ft 382 kts 284°
2026-04-13 20:23 32.67960 -65.10474 18460 ft 385 kts 284°
2026-04-13 20:23 32.68547 -65.13590 19016 ft 387 kts 284°
2026-04-13 20:24 32.69139 -65.16736 19526 ft 391 kts 284°
2026-04-13 20:24 32.69729 -65.19873 19972 ft 395 kts 284°
2026-04-13 20:24 32.70328 -65.23076 20524 ft 397 kts 284°
2026-04-13 20:24 32.70932 -65.26298 21035 ft 401 kts 284°
2026-04-13 20:25 32.71542 -65.29559 21576 ft 404 kts 284°
2026-04-13 20:25 32.72149 -65.32808 22064 ft 408 kts 284°
2026-04-13 20:25 32.72767 -65.36128 22584 ft 412 kts 284°
2026-04-13 20:25 32.73389 -65.39470 23105 ft 415 kts 284°
2026-04-13 20:26 32.74006 -65.42793 23602 ft 418 kts 284°
2026-04-13 20:26 32.74637 -65.46193 24082 ft 422 kts 284°
2026-04-13 20:26 32.75272 -65.49622 24510 ft 425 kts 284°
2026-04-13 20:26 32.75903 -65.53036 24935 ft 428 kts 284°
2026-04-13 20:27 32.76544 -65.56505 25362 ft 431 kts 285°
2026-04-13 20:27 32.77191 -65.60013 25779 ft 434 kts 285°
2026-04-13 20:27 32.77839 -65.63540 26211 ft 436 kts 285°
2026-04-13 20:27 32.78480 -65.67028 26630 ft 439 kts 285°
2026-04-13 20:28 32.79134 -65.70596 27034 ft 442 kts 285°
2026-04-13 20:28 32.79793 -65.74197 27447 ft 445 kts 285°
2026-04-13 20:28 32.80444 -65.77760 27854 ft 448 kts 285°
2026-04-13 20:28 32.81112 -65.81420 28255 ft 451 kts 285°
2026-04-13 20:29 32.81771 -65.85042 28649 ft 453 kts 285°
2026-04-13 20:29 32.82444 -65.88739 29065 ft 456 kts 285°
2026-04-13 20:29 32.83109 -65.92409 29469 ft 459 kts 285°
2026-04-13 20:29 32.83785 -65.96142 29888 ft 462 kts 285°
2026-04-13 20:30 32.84468 -65.99915 30273 ft 466 kts 285°
2026-04-13 20:30 32.85146 -66.03669 30614 ft 469 kts 285°
2026-04-13 20:30 32.85832 -66.07483 30997 ft 471 kts 285°
2026-04-13 20:30 32.86519 -66.11308 31400 ft 472 kts 285°
2026-04-13 20:31 32.87194 -66.15072 32008 ft 469 kts 286°
2026-04-13 20:31 32.87875 -66.18876 32607 ft 466 kts 286°
2026-04-13 20:31 32.88545 -66.22616 33169 ft 464 kts 286°
2026-04-13 20:31 32.89216 -66.26373 33721 ft 462 kts 286°
2026-04-13 20:32 32.89658 -66.28855 34113 ft 460 kts 286°
2026-04-13 20:32 32.90319 -66.32574 34640 ft 458 kts 287°
2026-04-13 20:32 32.90974 -66.36254 35092 ft 457 kts 287°
2026-04-13 20:32 32.91845 -66.41166 35702 ft 455 kts 287°
2026-04-13 20:33 32.92286 -66.43664 36015 ft 455 kts 287°
2026-04-13 20:33 32.92930 -66.47309 36467 ft 454 kts 287°
2026-04-13 20:33 32.93583 -66.51006 36912 ft 453 kts 287°
2026-04-13 20:33 32.94223 -66.54644 37352 ft 452 kts 287°
2026-04-13 20:34 32.94870 -66.58323 37777 ft 451 kts 287°
2026-04-13 20:34 32.95509 -66.61973 38263 ft 449 kts 287°
2026-04-13 20:34 32.96140 -66.65575 38697 ft 448 kts 287°
2026-04-13 20:34 32.96780 -66.69233 39118 ft 447 kts 287°
2026-04-13 20:35 32.97405 -66.72813 39467 ft 446 kts 287°
2026-04-13 20:35 32.98035 -66.76436 39768 ft 445 kts 287°
2026-04-13 20:35 32.98665 -66.80054 40001 ft 444 kts 287°
2026-04-13 20:35 32.99285 -66.83625 40243 ft 444 kts 287°
2026-04-13 20:36 32.99912 -66.87249 40379 ft 446 kts 287°
2026-04-13 20:36 33.00547 -66.90907 40369 ft 451 kts 287°
2026-04-13 20:36 33.01816 -66.98272 40390 ft 461 kts 286°
2026-04-13 20:37 33.03114 -67.05823 40396 ft 470 kts 286°
2026-04-13 20:37 33.04438 -67.13563 40390 ft 479 kts 286°
2026-04-13 20:38 33.05773 -67.21397 40388 ft 488 kts 286°
2026-04-13 20:38 33.07126 -67.29368 40394 ft 495 kts 285°
2026-04-13 20:39 33.08484 -67.37406 40391 ft 493 kts 285°
2026-04-13 20:39 33.09829 -67.45388 40387 ft 491 kts 285°
2026-04-13 20:40 33.11172 -67.53404 40390 ft 491 kts 285°
2026-04-13 20:40 33.12509 -67.61406 40385 ft 492 kts 285°
2026-04-13 20:41 33.13837 -67.69393 40388 ft 492 kts 285°
2026-04-13 20:41 33.15156 -67.77355 40389 ft 492 kts 285°
2026-04-13 20:42 33.16486 -67.85415 40386 ft 492 kts 285°
2026-04-13 20:42 33.17799 -67.93409 40386 ft 492 kts 285°
2026-04-13 20:43 33.19111 -68.01432 40386 ft 492 kts 285°
2026-04-13 20:43 33.20421 -68.09477 40386 ft 492 kts 285°
2026-04-13 20:44 33.22293 -68.17242 40374 ft 484 kts 298°
2026-04-13 20:44 33.25746 -68.24046 40395 ft 478 kts 308°
2026-04-13 20:45 33.29417 -68.30660 40386 ft 479 kts 303°
2026-04-13 20:46 33.33715 -68.41435 40393 ft 479 kts 300°
2026-04-13 20:46 33.36891 -68.48464 40396 ft 478 kts 301°
2026-04-13 20:47 33.39817 -68.55578 40381 ft 478 kts 299°
2026-04-13 20:47 33.42868 -68.62630 40380 ft 477 kts 300°
2026-04-13 20:48 33.45853 -68.69734 40380 ft 477 kts 299°
2026-04-13 20:48 33.48857 -68.76809 40378 ft 477 kts 300°
2026-04-13 20:49 33.51861 -68.83931 40384 ft 478 kts 300°
2026-04-13 20:49 33.54843 -68.91008 40387 ft 477 kts 299°
2026-04-13 20:50 33.57829 -68.98107 40386 ft 477 kts 299°
2026-04-13 20:50 33.60810 -69.05213 40386 ft 476 kts 299°
2026-04-13 20:51 33.63794 -69.12339 40380 ft 476 kts 299°
2026-04-13 20:51 33.66741 -69.19391 40372 ft 476 kts 299°
2026-04-13 20:52 33.69714 -69.26519 40383 ft 475 kts 299°
2026-04-13 20:52 33.72670 -69.33622 40391 ft 475 kts 298°
2026-04-13 20:53 33.75612 -69.40706 40393 ft 474 kts 298°
2026-04-13 20:53 33.78553 -69.47800 40390 ft 474 kts 298°
2026-04-13 20:54 33.81482 -69.54881 40376 ft 473 kts 298°
2026-04-13 20:54 33.84396 -69.61943 40375 ft 473 kts 298°
2026-04-13 20:55 33.87314 -69.69027 40374 ft 473 kts 298°
2026-04-13 20:55 33.90223 -69.76103 40373 ft 472 kts 298°
2026-04-13 20:56 33.93143 -69.83221 40377 ft 472 kts 298°
2026-04-13 20:56 33.96049 -69.90321 40383 ft 472 kts 298°
2026-04-13 20:57 33.98945 -69.97410 40375 ft 472 kts 298°
2026-04-13 20:57 34.01059 -70.04909 40382 ft 476 kts 287°
2026-04-13 20:58 34.02707 -70.12598 40391 ft 476 kts 287°
2026-04-13 20:58 34.04367 -70.20328 40376 ft 477 kts 287°
2026-04-13 20:59 34.06013 -70.28066 40383 ft 477 kts 287°
2026-04-13 20:59 34.07670 -70.35843 40379 ft 476 kts 287°
2026-04-13 21:00 34.09304 -70.43564 40374 ft 476 kts 287°
2026-04-13 21:00 34.10936 -70.51288 40377 ft 475 kts 287°
2026-04-13 21:01 34.12560 -70.59005 40368 ft 475 kts 287°
2026-04-13 21:01 34.14187 -70.66760 40370 ft 474 kts 286°
2026-04-13 21:02 34.15795 -70.74448 40370 ft 474 kts 286°
2026-04-13 21:02 34.17398 -70.82142 40368 ft 473 kts 286°
2026-04-13 21:03 34.19003 -70.89870 40367 ft 473 kts 286°
2026-04-13 21:03 34.20593 -70.97556 40366 ft 472 kts 286°
2026-04-13 21:04 34.22180 -71.05245 40364 ft 472 kts 286°
2026-04-13 21:04 34.23760 -71.12936 40361 ft 471 kts 286°
2026-04-13 21:05 34.25330 -71.20597 40362 ft 471 kts 286°
2026-04-13 21:05 34.26895 -71.28262 40364 ft 470 kts 286°
2026-04-13 21:06 34.28461 -71.35958 40363 ft 470 kts 286°
2026-04-13 21:06 34.30014 -71.43617 40361 ft 470 kts 286°
2026-04-13 21:07 34.31562 -71.51280 40360 ft 470 kts 286°
2026-04-13 21:07 34.33113 -71.58981 40367 ft 469 kts 285°
2026-04-13 21:08 34.34644 -71.66608 40362 ft 469 kts 285°
2026-04-13 21:08 34.36184 -71.74310 40358 ft 468 kts 285°
2026-04-13 21:09 34.37704 -71.81936 40377 ft 468 kts 285°
2026-04-13 21:09 34.39221 -71.89575 40375 ft 467 kts 285°
2026-04-13 21:10 34.40734 -71.97220 40369 ft 467 kts 285°
2026-04-13 21:10 34.42247 -72.04894 40374 ft 466 kts 285°
2026-04-13 21:11 34.43746 -72.12522 40364 ft 465 kts 285°
2026-04-13 21:11 34.45238 -72.20139 40371 ft 465 kts 284°
2026-04-13 21:12 34.46722 -72.27746 40357 ft 464 kts 284°
2026-04-13 21:12 34.48200 -72.35350 40367 ft 463 kts 284°
2026-04-13 21:13 34.49669 -72.42929 40362 ft 463 kts 284°
2026-04-13 21:13 34.51133 -72.50515 40360 ft 463 kts 284°
2026-04-13 21:14 34.52597 -72.58122 40354 ft 462 kts 284°
2026-04-13 21:14 34.54059 -72.65747 40360 ft 462 kts 284°
2026-04-13 21:15 34.55506 -72.73327 40360 ft 462 kts 284°
2026-04-13 21:15 34.56945 -72.80888 40356 ft 461 kts 284°
2026-04-13 21:16 34.58381 -72.88456 40358 ft 461 kts 284°
2026-04-13 21:16 34.59813 -72.96035 40347 ft 461 kts 283°
2026-04-13 21:17 34.61247 -73.03652 40351 ft 462 kts 283°
2026-04-13 21:17 34.62673 -73.11253 40351 ft 462 kts 283°
2026-04-13 21:18 34.64093 -73.18853 40346 ft 462 kts 283°
2026-04-13 21:18 34.65509 -73.26457 40349 ft 462 kts 283°
2026-04-13 21:19 34.66925 -73.34088 40351 ft 462 kts 283°
2026-04-13 21:19 34.68333 -73.41703 40346 ft 462 kts 283°
2026-04-13 21:20 34.69733 -73.49309 40346 ft 462 kts 283°
2026-04-13 21:20 34.70899 -73.55660 40343 ft 462 kts 283°
2026-04-13 21:21 34.72288 -73.63255 40346 ft 462 kts 283°
2026-04-13 21:21 34.73675 -73.70866 40342 ft 462 kts 283°
2026-04-13 21:22 34.75064 -73.78515 40345 ft 463 kts 283°
2026-04-13 21:22 34.76446 -73.86156 40345 ft 463 kts 283°
2026-04-13 21:23 34.77822 -73.93792 40342 ft 464 kts 283°
2026-04-13 21:23 34.79196 -74.01451 40343 ft 464 kts 283°
2026-04-13 21:24 34.80569 -74.09128 40332 ft 464 kts 283°
2026-04-13 21:24 34.81941 -74.16832 40339 ft 464 kts 282°
2026-04-13 21:25 34.83309 -74.24543 40339 ft 464 kts 282°
2026-04-13 21:25 34.84665 -74.32217 40340 ft 464 kts 282°
2026-04-13 21:26 34.86019 -74.39903 40331 ft 464 kts 282°
2026-04-13 21:26 34.87362 -74.47561 40330 ft 464 kts 282°
2026-04-13 21:27 34.88700 -74.55224 40326 ft 463 kts 282°
2026-04-13 21:27 34.90041 -74.62931 40327 ft 463 kts 282°
2026-04-13 21:28 34.91368 -74.70588 40321 ft 463 kts 282°
2026-04-13 21:28 34.92693 -74.78263 40323 ft 463 kts 282°
2026-04-13 21:29 34.94012 -74.85938 40318 ft 463 kts 282°
2026-04-13 21:29 34.95329 -74.93625 40321 ft 464 kts 282°
2026-04-13 21:30 34.96641 -75.01314 40321 ft 464 kts 282°
2026-04-13 21:30 34.97947 -75.09007 40319 ft 464 kts 282°
2026-04-13 21:31 34.99249 -75.16698 40322 ft 463 kts 282°
2026-04-13 21:31 35.00539 -75.24356 40319 ft 462 kts 282°
2026-04-13 21:32 35.01833 -75.32064 40317 ft 462 kts 282°
2026-04-13 21:32 35.03113 -75.39724 40311 ft 462 kts 281°
2026-04-13 21:33 35.04390 -75.47396 40318 ft 461 kts 281°
2026-04-13 21:33 35.05666 -75.55089 40316 ft 460 kts 281°
2026-04-13 21:34 35.07556 -75.66550 40305 ft 460 kts 281°
2026-04-13 21:34 35.08811 -75.74197 40312 ft 460 kts 281°
2026-04-13 21:35 35.10062 -75.81856 40306 ft 460 kts 281°
2026-04-13 21:36 35.11928 -75.93332 40300 ft 459 kts 281°
2026-04-13 21:36 35.13161 -76.00954 40303 ft 458 kts 281°
2026-04-13 21:37 35.14388 -76.08572 40307 ft 457 kts 281°
2026-04-13 21:37 35.15605 -76.16162 40306 ft 457 kts 280°
2026-04-13 21:38 35.16822 -76.23787 40308 ft 456 kts 280°
2026-04-13 21:38 35.18030 -76.31383 40307 ft 456 kts 280°
2026-04-13 21:39 35.19240 -76.39026 40302 ft 456 kts 280°
2026-04-13 21:39 35.20433 -76.46586 40302 ft 455 kts 280°
2026-04-13 21:40 35.21631 -76.54220 40301 ft 456 kts 280°
2026-04-13 21:40 35.22821 -76.61833 40303 ft 458 kts 280°
2026-04-13 21:41 35.24010 -76.69469 40288 ft 460 kts 280°
2026-04-13 21:41 35.25210 -76.77212 40295 ft 462 kts 280°
2026-04-13 21:42 35.26403 -76.84946 40291 ft 464 kts 280°
2026-04-13 21:42 35.27603 -76.92752 40286 ft 465 kts 279°
2026-04-13 21:43 35.28788 -77.00503 40279 ft 465 kts 279°
2026-04-13 21:43 35.29970 -77.08265 40277 ft 464 kts 279°
2026-04-13 21:44 35.31150 -77.16053 40276 ft 463 kts 279°
2026-04-13 21:44 35.32317 -77.23786 40277 ft 462 kts 279°
2026-04-13 21:45 35.33479 -77.31523 40279 ft 462 kts 279°
2026-04-13 21:45 35.34632 -77.39230 40278 ft 462 kts 279°
2026-04-13 21:46 35.35789 -77.47008 40273 ft 462 kts 279°
2026-04-13 21:46 35.36933 -77.54729 40280 ft 462 kts 279°
2026-04-13 21:47 35.37835 -77.62529 40279 ft 462 kts 276°
2026-04-13 21:47 35.38697 -77.70323 40281 ft 463 kts 277°
2026-04-13 21:48 35.39551 -77.78116 40510 ft 457 kts 276°
2026-04-13 21:48 35.39960 -77.81876 41746 ft 428 kts 277°
2026-04-13 21:48 35.40345 -77.85397 42863 ft 407 kts 277°
2026-04-13 21:48 35.40711 -77.88776 43257 ft 401 kts 277°
2026-04-13 21:49 35.41080 -77.92201 43256 ft 406 kts 277°
2026-04-13 21:49 35.41825 -77.99115 43263 ft 414 kts 277°
2026-04-13 21:50 35.42583 -78.06210 43271 ft 421 kts 277°
2026-04-13 21:50 35.43348 -78.13362 43269 ft 429 kts 277°
2026-04-13 21:51 35.44124 -78.20706 43253 ft 436 kts 277°
2026-04-13 21:51 35.44904 -78.28104 43254 ft 442 kts 277°
2026-04-13 21:52 35.45689 -78.35612 43254 ft 448 kts 277°
2026-04-13 21:52 35.46482 -78.43233 43252 ft 454 kts 277°
2026-04-13 21:53 35.47282 -78.50973 43259 ft 458 kts 277°
2026-04-13 21:53 35.48084 -78.58776 43274 ft 466 kts 277°
2026-04-13 21:54 35.48889 -78.66668 43269 ft 468 kts 277°
2026-04-13 21:54 35.49693 -78.74595 43270 ft 467 kts 277°
2026-04-13 21:55 35.50491 -78.82518 43254 ft 468 kts 276°
2026-04-13 21:55 35.51286 -78.90466 43255 ft 468 kts 276°
2026-04-13 21:56 35.52069 -78.98356 43259 ft 468 kts 276°
2026-04-13 21:56 35.52849 -79.06264 43252 ft 468 kts 276°
2026-04-13 21:57 35.53629 -79.14226 43256 ft 468 kts 276°
2026-04-13 21:57 35.54397 -79.22124 43255 ft 468 kts 276°
2026-04-13 21:58 35.55165 -79.30074 43258 ft 468 kts 276°
2026-04-13 21:58 35.55926 -79.38002 43269 ft 468 kts 276°
2026-04-13 21:59 35.56679 -79.45904 43281 ft 469 kts 276°
2026-04-13 21:59 35.57435 -79.53889 43281 ft 469 kts 276°
2026-04-13 22:00 35.58180 -79.61824 43276 ft 468 kts 276°
2026-04-13 22:00 35.58919 -79.69753 43288 ft 468 kts 276°
2026-04-13 22:01 35.59658 -79.77730 43296 ft 468 kts 276°
2026-04-13 22:01 35.60388 -79.85667 43299 ft 469 kts 276°
2026-04-13 22:02 35.61112 -79.93613 43302 ft 469 kts 276°
2026-04-13 22:02 35.61832 -80.01562 43297 ft 468 kts 276°
2026-04-13 22:03 35.62548 -80.09521 43287 ft 469 kts 276°
2026-04-13 22:03 35.63260 -80.17508 43268 ft 469 kts 276°
2026-04-13 22:04 35.63964 -80.25460 43265 ft 470 kts 276°
2026-04-13 22:04 35.64669 -80.33477 43262 ft 470 kts 276°
2026-04-13 22:05 35.65364 -80.41458 43271 ft 470 kts 276°
2026-04-13 22:05 35.66053 -80.49415 43272 ft 470 kts 276°
2026-04-13 22:06 35.66739 -80.57412 43271 ft 472 kts 276°
2026-04-13 22:06 35.67422 -80.65431 43265 ft 471 kts 276°
2026-04-13 22:07 35.68102 -80.73481 43271 ft 471 kts 275°
2026-04-13 22:07 35.68773 -80.81485 43268 ft 471 kts 275°
2026-04-13 22:08 35.69439 -80.89495 43273 ft 471 kts 275°
2026-04-13 22:08 35.69992 -80.96199 43272 ft 473 kts 275°
2026-04-13 22:09 35.70649 -81.04226 43273 ft 473 kts 275°
2026-04-13 22:09 35.71306 -81.12313 43265 ft 473 kts 275°
2026-04-13 22:10 35.72057 -81.21652 43256 ft 473 kts 275°
2026-04-13 22:10 35.72594 -81.28373 43269 ft 473 kts 275°
2026-04-13 22:11 35.73231 -81.36426 43266 ft 474 kts 275°
2026-04-13 22:11 35.73867 -81.44525 43264 ft 473 kts 275°
2026-04-13 22:12 35.74495 -81.52592 43259 ft 473 kts 275°
2026-04-13 22:12 35.75115 -81.60639 43300 ft 473 kts 275°
2026-04-13 22:13 35.75731 -81.68689 43298 ft 474 kts 275°
2026-04-13 22:13 35.76345 -81.76799 43284 ft 474 kts 275°
2026-04-13 22:14 35.76951 -81.84867 43271 ft 474 kts 275°
2026-04-13 22:14 35.77551 -81.92929 43254 ft 474 kts 275°
2026-04-13 22:15 35.78149 -82.01036 43245 ft 474 kts 275°
2026-04-13 22:15 35.78737 -82.09092 43236 ft 474 kts 275°
2026-04-13 22:16 35.79322 -82.17178 43233 ft 475 kts 275°
2026-04-13 22:16 35.79903 -82.25281 43231 ft 474 kts 275°
2026-04-13 22:17 35.80477 -82.33370 43227 ft 474 kts 275°
2026-04-13 22:17 35.81045 -82.41428 43234 ft 474 kts 274°
2026-04-13 22:18 35.81605 -82.49500 43233 ft 474 kts 275°
2026-04-13 22:18 35.82169 -82.57635 43226 ft 474 kts 274°
2026-04-13 22:19 35.82718 -82.65699 43228 ft 474 kts 274°
2026-04-13 22:19 35.83269 -82.73828 43232 ft 474 kts 274°
2026-04-13 22:20 35.83808 -82.81902 43229 ft 475 kts 274°
2026-04-13 22:20 35.84344 -82.89999 43219 ft 474 kts 275°
2026-04-13 22:21 35.84875 -82.98092 43236 ft 475 kts 274°
2026-04-13 22:21 35.85403 -83.06220 43235 ft 476 kts 274°
2026-04-13 22:22 35.85923 -83.14336 43212 ft 475 kts 274°
2026-04-13 22:22 35.86441 -83.22471 43233 ft 474 kts 274°
2026-04-13 22:23 35.86949 -83.30553 43234 ft 474 kts 274°
2026-04-13 22:23 35.87452 -83.38649 43237 ft 475 kts 274°
2026-04-13 22:24 35.87951 -83.46756 43224 ft 474 kts 274°
2026-04-13 22:24 35.88446 -83.54908 43232 ft 474 kts 274°
2026-04-13 22:25 35.88931 -83.62976 43230 ft 472 kts 274°
2026-04-13 22:25 35.89412 -83.71054 43235 ft 473 kts 274°
2026-04-13 22:26 35.89886 -83.79133 43240 ft 472 kts 274°
2026-04-13 22:26 35.90356 -83.87219 43238 ft 473 kts 274°
2026-04-13 22:27 35.91029 -83.95231 43239 ft 471 kts 276°
2026-04-13 22:27 35.91792 -84.03259 43236 ft 472 kts 276°
2026-04-13 22:28 35.92542 -84.11329 43238 ft 472 kts 276°
2026-04-13 22:28 35.93290 -84.19348 43236 ft 472 kts 276°
2026-04-13 22:29 35.94028 -84.27373 43236 ft 472 kts 276°
2026-04-13 22:29 35.94768 -84.35444 43235 ft 471 kts 276°
2026-04-13 22:30 35.95494 -84.43454 43249 ft 471 kts 276°
2026-04-13 22:30 35.96222 -84.51525 43253 ft 471 kts 276°
2026-04-13 22:31 35.96939 -84.59551 43263 ft 471 kts 276°
2026-04-13 22:31 35.97652 -84.67571 43260 ft 471 kts 275°
2026-04-13 22:32 35.98360 -84.75615 43262 ft 471 kts 275°
2026-04-13 22:32 35.99060 -84.83623 43254 ft 470 kts 275°
2026-04-13 22:33 35.99760 -84.91699 43265 ft 471 kts 275°
2026-04-13 22:33 36.00451 -84.99728 43271 ft 471 kts 275°
2026-04-13 22:34 36.01819 -85.15814 43271 ft 471 kts 275°
2026-04-13 22:35 36.02493 -85.23848 43265 ft 471 kts 275°
2026-04-13 22:35 36.03163 -85.31891 43237 ft 471 kts 275°
2026-04-13 22:36 36.03828 -85.39940 43231 ft 472 kts 275°
2026-04-13 22:36 36.04493 -85.48056 43222 ft 474 kts 275°
2026-04-13 22:37 36.05148 -85.56125 43219 ft 474 kts 275°
2026-04-13 22:37 36.05803 -85.64258 43224 ft 474 kts 275°
2026-04-13 22:38 36.06447 -85.72325 43218 ft 474 kts 275°
2026-04-13 22:38 36.07090 -85.80452 43223 ft 474 kts 275°
2026-04-13 22:39 36.07725 -85.88542 43217 ft 474 kts 275°
2026-04-13 22:39 36.08353 -85.96625 43218 ft 474 kts 275°
2026-04-13 22:40 36.08978 -86.04721 43218 ft 474 kts 274°
2026-04-13 22:40 36.09596 -86.12814 43221 ft 474 kts 274°
2026-04-13 22:41 36.10213 -86.20963 43219 ft 473 kts 275°
2026-04-13 22:41 36.10819 -86.29050 43215 ft 473 kts 275°
2026-04-13 22:42 36.11421 -86.37137 43216 ft 473 kts 275°
2026-04-13 22:42 36.12016 -86.45215 43218 ft 473 kts 274°
2026-04-13 22:43 36.12610 -86.53355 43217 ft 473 kts 274°
2026-04-13 22:43 36.13195 -86.61455 43201 ft 471 kts 274°
2026-04-13 22:44 36.13720 -86.69549 43183 ft 472 kts 271°
2026-04-13 22:44 36.13789 -86.77644 43205 ft 472 kts 270°
2026-04-13 22:45 36.13891 -86.85745 43179 ft 472 kts 270°
2026-04-13 22:45 36.13957 -86.93833 43181 ft 471 kts 270°
2026-04-13 22:46 36.14036 -87.01912 43181 ft 471 kts 270°
2026-04-13 22:46 36.14100 -87.10055 43182 ft 470 kts 270°
2026-04-13 22:47 36.14164 -87.18127 43183 ft 470 kts 270°
2026-04-13 22:47 36.14220 -87.26254 43186 ft 470 kts 270°
2026-04-13 22:48 36.14271 -87.34330 43180 ft 470 kts 270°
2026-04-13 22:48 36.14315 -87.42389 43180 ft 470 kts 270°
2026-04-13 22:49 36.14355 -87.50445 43182 ft 470 kts 270°
2026-04-13 22:49 36.14390 -87.58561 43179 ft 470 kts 270°
2026-04-13 22:50 36.14419 -87.66575 43179 ft 470 kts 270°
2026-04-13 22:50 36.14443 -87.74689 43167 ft 471 kts 270°
2026-04-13 22:51 36.14460 -87.82774 43169 ft 470 kts 270°
2026-04-13 22:51 36.14474 -87.90858 43168 ft 471 kts 270°
2026-04-13 22:52 36.14481 -87.98994 43165 ft 471 kts 270°
2026-04-13 22:52 36.14483 -88.07036 43158 ft 471 kts 270°
2026-04-13 22:53 36.14479 -88.15174 43158 ft 471 kts 270°
2026-04-13 22:53 36.14470 -88.23225 43156 ft 471 kts 270°
2026-04-13 22:54 36.14456 -88.31354 43159 ft 471 kts 270°
2026-04-13 22:54 36.14436 -88.39430 43157 ft 471 kts 270°
2026-04-13 22:55 36.14411 -88.47532 43160 ft 471 kts 270°
2026-04-13 22:55 36.14380 -88.55607 43160 ft 470 kts 270°
2026-04-13 22:56 36.14344 -88.63733 43158 ft 470 kts 270°
2026-04-13 22:56 36.14303 -88.71805 43153 ft 470 kts 270°
2026-04-13 22:57 36.14265 -88.78553 43143 ft 470 kts 269°
2026-04-13 22:57 36.14214 -88.86625 43127 ft 470 kts 269°
2026-04-13 22:58 36.14157 -88.94730 43120 ft 470 kts 269°
2026-04-13 22:58 36.14095 -89.02796 43121 ft 470 kts 269°
2026-04-13 22:59 36.14028 -89.10872 43118 ft 470 kts 269°
2026-04-13 22:59 36.13955 -89.18994 43117 ft 470 kts 269°
2026-04-13 23:00 36.13876 -89.27074 43110 ft 469 kts 269°
2026-04-13 23:00 36.13793 -89.35121 43108 ft 469 kts 269°
2026-04-13 23:01 36.13705 -89.43180 43108 ft 469 kts 269°
2026-04-13 23:01 36.13610 -89.51253 43108 ft 469 kts 269°
2026-04-13 23:02 36.13511 -89.59313 43108 ft 469 kts 269°
2026-04-13 23:02 36.13405 -89.67376 43109 ft 469 kts 269°
2026-04-13 23:03 36.13295 -89.75456 43104 ft 469 kts 269°
2026-04-13 23:03 36.13178 -89.83557 43105 ft 469 kts 269°
2026-04-13 23:04 36.13057 -89.91586 43107 ft 469 kts 269°
2026-04-13 23:04 36.12930 -89.99670 43103 ft 469 kts 269°
2026-04-13 23:05 36.12797 -90.07772 43090 ft 469 kts 269°
2026-04-13 23:05 36.12658 -90.15786 43090 ft 469 kts 269°
2026-04-13 23:06 36.12511 -90.23877 43089 ft 469 kts 269°
2026-04-13 23:06 36.12361 -90.31921 43090 ft 469 kts 269°
2026-04-13 23:07 36.12209 -90.39971 43092 ft 469 kts 268°
2026-04-13 23:07 36.12049 -90.48027 43092 ft 469 kts 268°
2026-04-13 23:08 36.11884 -90.56128 43085 ft 469 kts 268°
2026-04-13 23:08 36.11714 -90.64176 43081 ft 469 kts 268°
2026-04-13 23:09 36.11538 -90.72216 43076 ft 469 kts 268°
2026-04-13 23:09 36.11358 -90.80245 43081 ft 468 kts 268°
2026-04-13 23:10 36.11173 -90.88286 43081 ft 468 kts 268°
2026-04-13 23:10 36.11035 -90.96366 43076 ft 468 kts 271°
2026-04-13 23:11 36.11355 -91.04377 43082 ft 468 kts 272°
2026-04-13 23:11 36.11636 -91.12440 43085 ft 468 kts 272°
2026-04-13 23:12 36.11938 -91.20455 43083 ft 468 kts 272°
2026-04-13 23:12 36.12220 -91.28543 43085 ft 468 kts 272°
2026-04-13 23:13 36.12505 -91.36568 43088 ft 468 kts 272°
2026-04-13 23:13 36.12778 -91.44584 43087 ft 468 kts 272°
2026-04-13 23:14 36.13049 -91.52610 43087 ft 467 kts 271°
2026-04-13 23:14 36.13310 -91.60633 43091 ft 465 kts 271°
2026-04-13 23:15 36.13567 -91.68616 43088 ft 466 kts 271°
2026-04-13 23:15 36.13820 -91.76610 43090 ft 465 kts 271°
2026-04-13 23:16 36.14068 -91.84645 43081 ft 466 kts 271°
2026-04-13 23:16 36.14309 -91.92639 43077 ft 466 kts 271°
2026-04-13 23:17 36.14543 -92.00597 43071 ft 465 kts 271°
2026-04-13 23:17 36.14776 -92.08629 43070 ft 465 kts 271°
2026-04-13 23:18 36.15000 -92.16614 43058 ft 466 kts 271°
2026-04-13 23:18 36.15221 -92.24601 43059 ft 466 kts 271°
2026-04-13 23:19 36.15436 -92.32635 43057 ft 466 kts 271°
2026-04-13 23:19 36.15646 -92.40647 43062 ft 466 kts 271°
2026-04-13 23:20 36.15850 -92.48638 43058 ft 466 kts 271°
2026-04-13 23:20 36.16049 -92.56649 43057 ft 466 kts 271°
2026-04-13 23:21 36.16243 -92.64692 43050 ft 466 kts 271°
2026-04-13 23:21 36.16431 -92.72700 43048 ft 465 kts 270°
2026-04-13 23:22 36.16614 -92.80699 43037 ft 465 kts 270°
2026-04-13 23:22 36.16792 -92.88694 43043 ft 466 kts 270°
2026-04-13 23:23 36.16963 -92.96690 43048 ft 466 kts 270°
2026-04-13 23:23 36.17132 -93.04746 43051 ft 466 kts 270°
2026-04-13 23:24 36.17291 -93.12719 43060 ft 464 kts 270°
2026-04-13 23:24 36.17525 -93.24687 43056 ft 464 kts 270°
2026-04-13 23:25 36.17671 -93.32662 43055 ft 464 kts 270°
2026-04-13 23:25 36.17815 -93.40625 43046 ft 464 kts 270°
2026-04-13 23:26 36.17951 -93.48603 43038 ft 464 kts 270°
2026-04-13 23:26 36.18084 -93.56629 43021 ft 464 kts 270°
2026-04-13 23:27 36.18210 -93.64606 43019 ft 464 kts 270°
2026-04-13 23:27 36.18331 -93.72558 43019 ft 464 kts 270°
2026-04-13 23:28 36.18447 -93.80558 43045 ft 464 kts 270°
2026-04-13 23:28 36.18556 -93.88506 43037 ft 461 kts 269°
2026-04-13 23:29 36.18662 -93.96433 43044 ft 461 kts 269°
2026-04-13 23:29 36.18762 -94.04384 43045 ft 461 kts 269°
2026-04-13 23:30 36.18856 -94.12284 43047 ft 461 kts 269°
2026-04-13 23:30 36.18946 -94.20240 43070 ft 461 kts 269°
2026-04-13 23:31 36.19027 -94.28103 43017 ft 458 kts 269°
2026-04-13 23:31 36.19107 -94.36007 43016 ft 458 kts 269°
2026-04-13 23:32 36.19179 -94.43856 43030 ft 458 kts 269°
2026-04-13 23:32 36.19248 -94.51775 43030 ft 458 kts 269°
2026-04-13 23:33 36.19310 -94.59646 43025 ft 458 kts 269°
2026-04-13 23:33 36.19367 -94.67522 43016 ft 458 kts 269°
2026-04-13 23:34 36.19420 -94.75437 42969 ft 458 kts 269°
2026-04-13 23:34 36.19467 -94.83317 42968 ft 458 kts 269°
2026-04-13 23:35 36.19509 -94.91196 42958 ft 458 kts 269°
2026-04-13 23:35 36.19546 -94.99061 42970 ft 459 kts 268°
2026-04-13 23:36 36.19578 -95.07005 42958 ft 459 kts 268°
2026-04-13 23:36 36.19605 -95.14883 42954 ft 459 kts 268°
2026-04-13 23:37 36.19626 -95.22769 42947 ft 459 kts 268°
2026-04-13 23:37 36.19642 -95.30638 42940 ft 458 kts 268°
2026-04-13 23:38 36.19653 -95.38535 42936 ft 459 kts 268°
2026-04-13 23:38 36.19659 -95.46425 42937 ft 459 kts 268°
2026-04-13 23:39 36.19659 -95.54341 42935 ft 459 kts 268°
2026-04-13 23:39 36.19655 -95.62248 42934 ft 459 kts 268°
2026-04-13 23:40 36.19645 -95.70134 42918 ft 459 kts 268°
2026-04-13 23:40 36.19631 -95.78022 42915 ft 459 kts 268°
2026-04-13 23:41 36.20016 -95.85898 42916 ft 460 kts 271°
2026-04-13 23:41 36.20409 -95.93816 42920 ft 460 kts 271°
2026-04-13 23:42 36.20829 -96.01732 42920 ft 460 kts 271°
2026-04-13 23:42 36.21223 -96.09602 42919 ft 460 kts 271°
2026-04-13 23:43 36.21555 -96.16174 42909 ft 457 kts 271°
2026-04-13 23:43 36.22010 -96.25323 42903 ft 457 kts 271°
2026-04-13 23:44 36.22331 -96.31881 42901 ft 458 kts 271°
2026-04-13 23:44 36.22715 -96.39798 42899 ft 457 kts 270°
2026-04-13 23:45 36.23089 -96.47643 42901 ft 457 kts 270°
2026-04-13 23:45 36.23517 -96.56782 42894 ft 456 kts 270°
2026-04-13 23:46 36.23820 -96.63280 42896 ft 456 kts 270°
2026-04-13 23:46 36.24180 -96.71161 42886 ft 456 kts 269°
2026-04-13 23:47 36.24532 -96.78968 42873 ft 456 kts 269°
2026-04-13 23:47 36.24880 -96.86784 42870 ft 457 kts 269°
2026-04-13 23:48 36.25227 -96.94710 42875 ft 458 kts 269°
2026-04-13 23:48 36.25567 -97.02595 42873 ft 458 kts 269°
2026-04-13 23:49 36.25901 -97.10449 42872 ft 458 kts 269°
2026-04-13 23:49 36.26230 -97.18326 42867 ft 458 kts 269°
2026-04-13 23:50 36.26556 -97.26241 42857 ft 458 kts 269°
2026-04-13 23:50 36.26874 -97.34117 42845 ft 458 kts 269°
2026-04-13 23:51 36.27190 -97.42035 42870 ft 459 kts 269°
2026-04-13 23:51 36.27498 -97.49915 42818 ft 458 kts 269°
2026-04-13 23:52 36.27802 -97.57800 42830 ft 458 kts 269°
2026-04-13 23:52 36.28097 -97.65636 42834 ft 454 kts 269°
2026-04-13 23:53 36.28388 -97.73464 42844 ft 456 kts 269°
2026-04-13 23:53 36.28675 -97.81289 42847 ft 455 kts 269°
2026-04-13 23:54 36.28957 -97.89161 42815 ft 455 kts 269°
2026-04-13 23:54 36.29233 -97.96965 42816 ft 455 kts 269°
2026-04-13 23:55 36.29505 -98.04873 42813 ft 459 kts 269°
2026-04-13 23:55 36.29775 -98.12761 42805 ft 459 kts 269°
2026-04-13 23:56 36.30036 -98.20660 42792 ft 459 kts 269°
2026-04-13 23:56 36.30294 -98.28560 42781 ft 459 kts 268°
2026-04-13 23:57 36.30546 -98.36445 42763 ft 459 kts 268°
2026-04-13 23:57 36.30790 -98.44306 42756 ft 457 kts 268°
2026-04-13 23:58 36.31033 -98.52188 42752 ft 457 kts 268°
2026-04-13 23:58 36.31268 -98.60052 42754 ft 457 kts 268°
2026-04-13 23:59 36.31500 -98.67952 42752 ft 457 kts 268°
2026-04-13 23:59 36.31725 -98.75808 42754 ft 457 kts 268°
2026-04-14 00:00 36.31944 -98.83632 42750 ft 456 kts 268°
2026-04-14 00:00 36.32160 -98.91534 42746 ft 456 kts 268°
2026-04-14 00:01 36.32370 -98.99407 42750 ft 457 kts 268°
2026-04-14 00:01 36.32574 -99.07230 42750 ft 457 kts 268°
2026-04-14 00:02 36.32773 -99.15129 42748 ft 456 kts 268°
2026-04-14 00:02 36.32967 -99.22939 42748 ft 456 kts 268°
2026-04-14 00:03 36.33156 -99.30835 42752 ft 456 kts 268°
2026-04-14 00:03 36.33341 -99.38699 42853 ft 456 kts 268°
2026-04-14 00:04 36.33519 -99.46543 42899 ft 456 kts 268°
2026-04-14 00:04 36.33691 -99.54404 42873 ft 454 kts 268°
2026-04-14 00:05 36.33860 -99.62211 42864 ft 454 kts 268°
2026-04-14 00:05 36.34022 -99.70028 42852 ft 454 kts 268°
2026-04-14 00:06 36.34180 -99.77845 42852 ft 454 kts 267°
2026-04-14 00:06 36.34330 -99.85699 42850 ft 453 kts 266°
2026-04-14 00:07 36.33790 -99.93374 42835 ft 449 kts 259°
2026-04-14 00:07 36.32965 -100.01075 42826 ft 449 kts 259°
2026-04-14 00:08 36.32126 -100.08726 42804 ft 449 kts 259°
2026-04-14 00:08 36.31286 -100.16377 42774 ft 448 kts 259°
2026-04-14 00:09 36.30441 -100.24029 42764 ft 448 kts 259°
2026-04-14 00:09 36.29588 -100.31703 42768 ft 448 kts 259°
2026-04-14 00:10 36.28731 -100.39369 42785 ft 448 kts 259°
2026-04-14 00:10 36.27875 -100.46980 42809 ft 448 kts 259°
2026-04-14 00:11 36.27011 -100.54617 42828 ft 448 kts 259°
2026-04-14 00:11 36.26143 -100.62242 42838 ft 447 kts 258°
2026-04-14 00:12 36.25266 -100.69906 42844 ft 448 kts 258°
2026-04-14 00:12 36.24387 -100.77539 42844 ft 447 kts 258°
2026-04-14 00:13 36.23506 -100.85148 42831 ft 447 kts 258°
2026-04-14 00:13 36.22617 -100.92786 42821 ft 447 kts 258°
2026-04-14 00:14 36.21724 -101.00408 42803 ft 447 kts 258°
2026-04-14 00:14 36.20827 -101.08027 42788 ft 447 kts 258°
2026-04-14 00:15 36.19928 -101.15620 42781 ft 447 kts 258°
2026-04-14 00:15 36.19022 -101.23229 42782 ft 448 kts 258°
2026-04-14 00:16 36.18105 -101.30890 42805 ft 447 kts 258°
2026-04-14 00:16 36.17192 -101.38462 42779 ft 446 kts 258°
2026-04-14 00:17 36.16276 -101.46041 42761 ft 446 kts 258°
2026-04-14 00:17 36.15352 -101.53627 42766 ft 446 kts 258°
2026-04-14 00:18 36.14422 -101.61226 42765 ft 446 kts 258°
2026-04-14 00:18 36.13487 -101.68827 42776 ft 446 kts 258°
2026-04-14 00:19 36.12549 -101.76412 42764 ft 446 kts 258°
2026-04-14 00:19 36.11608 -101.83985 42771 ft 446 kts 258°
2026-04-14 00:20 36.10661 -101.91563 42774 ft 446 kts 257°
2026-04-14 00:20 36.09708 -101.99135 42772 ft 446 kts 257°
2026-04-14 00:21 36.08747 -102.06747 42769 ft 447 kts 257°
2026-04-14 00:21 36.07786 -102.14306 42775 ft 446 kts 257°
2026-04-14 00:22 36.06814 -102.21922 42821 ft 447 kts 257°
2026-04-14 00:22 36.05844 -102.29479 42852 ft 447 kts 257°
2026-04-14 00:23 36.04868 -102.37052 42885 ft 447 kts 257°
2026-04-14 00:23 36.03888 -102.44606 42908 ft 446 kts 257°
2026-04-14 00:24 36.02896 -102.52215 42911 ft 446 kts 257°
2026-04-14 00:24 36.01908 -102.59762 42911 ft 446 kts 257°
2026-04-14 00:25 36.00909 -102.67350 42903 ft 446 kts 257°
2026-04-14 00:25 35.99912 -102.74888 42875 ft 446 kts 257°
2026-04-14 00:26 35.98898 -102.82506 42848 ft 448 kts 257°
2026-04-14 00:26 35.97894 -102.90024 42821 ft 448 kts 257°
2026-04-14 00:27 35.96870 -102.97647 42802 ft 448 kts 257°
2026-04-14 00:27 35.95852 -103.05194 42797 ft 447 kts 257°
2026-04-14 00:28 35.94818 -103.12820 42803 ft 448 kts 257°
2026-04-14 00:28 35.93784 -103.20403 42800 ft 450 kts 257°
2026-04-14 00:29 35.92744 -103.28008 42805 ft 451 kts 257°
2026-04-14 00:29 35.91870 -103.34353 42805 ft 451 kts 257°
2026-04-14 00:30 35.90819 -103.41965 42806 ft 450 kts 257°
2026-04-14 00:30 35.89764 -103.49563 42814 ft 451 kts 256°
2026-04-14 00:31 35.88698 -103.57195 42809 ft 451 kts 257°
2026-04-14 00:31 35.87631 -103.64817 42807 ft 451 kts 257°
2026-04-14 00:32 35.86019 -103.76249 42809 ft 451 kts 256°
2026-04-14 00:33 35.84938 -103.83866 42807 ft 451 kts 256°
2026-04-14 00:33 35.83846 -103.91519 42809 ft 451 kts 256°
2026-04-14 00:34 35.82764 -103.99091 42811 ft 452 kts 256°
2026-04-14 00:34 35.81662 -104.06745 42807 ft 451 kts 256°
2026-04-14 00:35 35.80564 -104.14343 42814 ft 451 kts 256°
2026-04-14 00:35 35.79460 -104.21945 42836 ft 451 kts 256°
2026-04-14 00:36 35.78356 -104.29506 42818 ft 450 kts 256°
2026-04-14 00:36 35.77249 -104.37073 42816 ft 450 kts 256°
2026-04-14 00:37 35.76126 -104.44688 42820 ft 451 kts 256°
2026-04-14 00:37 35.74817 -104.53546 42828 ft 450 kts 256°
2026-04-14 00:38 35.73876 -104.59880 42829 ft 451 kts 256°
2026-04-14 00:38 35.72746 -104.67457 42841 ft 450 kts 256°
2026-04-14 00:39 35.71613 -104.75008 42842 ft 450 kts 256°
2026-04-14 00:39 35.70475 -104.82574 42843 ft 450 kts 256°
2026-04-14 00:40 35.69328 -104.90160 42843 ft 451 kts 256°
2026-04-14 00:40 35.68176 -104.97738 42844 ft 453 kts 256°
2026-04-14 00:40 35.67593 -105.01566 43078 ft 452 kts 256°
2026-04-14 00:41 35.67015 -105.05352 43091 ft 452 kts 256°
2026-04-14 00:41 35.65890 -105.12933 43083 ft 454 kts 258°
2026-04-14 00:42 35.65528 -105.20746 43089 ft 457 kts 263°
2026-04-14 00:42 35.65247 -105.28529 43072 ft 457 kts 263°
2026-04-14 00:43 35.64982 -105.36329 43037 ft 457 kts 263°
2026-04-14 00:43 35.64710 -105.44150 42988 ft 458 kts 263°
2026-04-14 00:44 35.64425 -105.51979 42961 ft 460 kts 263°
2026-04-14 00:44 35.64139 -105.59847 42923 ft 458 kts 263°
2026-04-14 00:45 35.63846 -105.67678 42932 ft 460 kts 263°
2026-04-14 00:45 35.63552 -105.75511 42937 ft 460 kts 263°
2026-04-14 00:46 35.63248 -105.83330 42937 ft 459 kts 263°
2026-04-14 00:46 35.62943 -105.91162 42938 ft 459 kts 263°
2026-04-14 00:46 35.62787 -105.95105 43089 ft 459 kts 263°
2026-04-14 00:47 35.62631 -105.99035 43102 ft 459 kts 263°
2026-04-14 00:47 35.62312 -106.06871 43100 ft 458 kts 263°
2026-04-14 00:48 35.61992 -106.14680 43098 ft 459 kts 263°
2026-04-14 00:48 35.61666 -106.22484 43086 ft 458 kts 262°
2026-04-14 00:49 35.61334 -106.30304 43042 ft 458 kts 262°
2026-04-14 00:49 35.60998 -106.38113 42997 ft 458 kts 262°
2026-04-14 00:50 35.60655 -106.45936 42974 ft 458 kts 262°
2026-04-14 00:50 35.60311 -106.53735 42922 ft 458 kts 262°
2026-04-14 00:51 35.59958 -106.61557 42920 ft 458 kts 262°
2026-04-14 00:51 35.59600 -106.69366 42926 ft 459 kts 262°
2026-04-14 00:52 35.59241 -106.77162 42924 ft 457 kts 262°
2026-04-14 00:52 35.58875 -106.84941 42928 ft 457 kts 262°
2026-04-14 00:53 35.58503 -106.92764 42925 ft 456 kts 262°
2026-04-14 00:53 35.58128 -107.00512 42921 ft 457 kts 262°
2026-04-14 00:54 35.57746 -107.08348 42927 ft 456 kts 262°
2026-04-14 00:54 35.57363 -107.16075 42925 ft 455 kts 262°
2026-04-14 00:55 35.56973 -107.23842 42918 ft 456 kts 262°
2026-04-14 00:55 35.56578 -107.31620 42921 ft 455 kts 262°
2026-04-14 00:56 35.56181 -107.39328 42908 ft 454 kts 262°
2026-04-14 00:56 35.55775 -107.47104 42899 ft 459 kts 262°
2026-04-14 00:57 35.55362 -107.54972 42901 ft 460 kts 262°
2026-04-14 00:57 35.54943 -107.62792 42892 ft 461 kts 262°
2026-04-14 00:58 35.54519 -107.70647 42893 ft 460 kts 262°
2026-04-14 00:58 35.54089 -107.78490 42884 ft 462 kts 262°
2026-04-14 00:59 35.53653 -107.86378 42885 ft 462 kts 262°
2026-04-14 00:59 35.53214 -107.94217 42877 ft 462 kts 262°
2026-04-14 01:00 35.52768 -108.02066 42877 ft 462 kts 262°
2026-04-14 01:00 35.52315 -108.09961 42866 ft 461 kts 261°
2026-04-14 01:01 35.51859 -108.17811 42856 ft 462 kts 262°
2026-04-14 01:01 35.51398 -108.25659 42859 ft 461 kts 261°
2026-04-14 01:02 35.50933 -108.33500 42860 ft 462 kts 261°
2026-04-14 01:02 35.50459 -108.41388 42860 ft 462 kts 261°
2026-04-14 01:03 35.49983 -108.49222 42857 ft 466 kts 262°
2026-04-14 01:03 35.49497 -108.57168 42856 ft 465 kts 262°
2026-04-14 01:04 35.49007 -108.65062 42841 ft 466 kts 262°
2026-04-14 01:04 35.48508 -108.73025 42834 ft 466 kts 261°
2026-04-14 01:04 35.48260 -108.76950 43081 ft 466 kts 261°
2026-04-14 01:05 35.48007 -108.80932 43065 ft 465 kts 261°
2026-04-14 01:05 35.47449 -108.88780 43067 ft 463 kts 259°
2026-04-14 01:06 35.46608 -108.96582 43013 ft 462 kts 259°
2026-04-14 01:06 35.45782 -109.04449 42990 ft 462 kts 258°
2026-04-14 01:07 35.44940 -109.12240 43021 ft 463 kts 258°
2026-04-14 01:07 35.44107 -109.20001 42974 ft 460 kts 258°
2026-04-14 01:08 35.43259 -109.27804 42950 ft 460 kts 258°
2026-04-14 01:08 35.42411 -109.35584 42919 ft 460 kts 258°
2026-04-14 01:09 35.41557 -109.43350 42895 ft 460 kts 258°
2026-04-14 01:09 35.40700 -109.51110 42892 ft 458 kts 258°
2026-04-14 01:10 35.39841 -109.58821 42890 ft 459 kts 258°
2026-04-14 01:10 35.38973 -109.66600 42887 ft 459 kts 258°
2026-04-14 01:11 35.38103 -109.74330 42886 ft 458 kts 258°
2026-04-14 01:11 35.37229 -109.82061 42882 ft 459 kts 258°
2026-04-14 01:12 35.36349 -109.89788 42885 ft 458 kts 258°
2026-04-14 01:12 35.35469 -109.97486 42886 ft 458 kts 258°
2026-04-14 01:13 35.34577 -110.05224 42885 ft 458 kts 258°
2026-04-14 01:13 35.33685 -110.12937 42884 ft 458 kts 257°
2026-04-14 01:14 35.32783 -110.20668 42878 ft 459 kts 257°
2026-04-14 01:14 35.31879 -110.28393 42878 ft 459 kts 257°
2026-04-14 01:15 35.30963 -110.36170 42887 ft 459 kts 257°
2026-04-14 01:15 35.30048 -110.43895 42883 ft 459 kts 257°
2026-04-14 01:16 35.29130 -110.51604 42885 ft 458 kts 257°
2026-04-14 01:16 35.28210 -110.59289 42886 ft 459 kts 257°